Weather History for Linz Airport, Austria

Change the Weather History Date:

Sunday, April 29, 2012

  Actual Average Record
Temperature  
Mean Temperature 73 °F -  
Max Temperature 85 °F 67 °F 85 °F (2012)
Min Temperature 61 °F 48 °F 41 °F (2005)
Cooling Degree Days 8    
Growing Degree Days 23 (Base 50)    
Moisture  
Dew Point 44 °F    
Average Humidity 35    
Maximum Humidity 59    
Minimum Humidity 12    
Precipitation  
Precipitation 0.00 in - - ()
Sea Level Pressure  
Sea Level Pressure 29.84 in    
Wind  
Wind Speed 8 mph ()    
Max Wind Speed 15 mph    
Max Gust Speed -    
Visibility 6.2 miles    
Events      
Averages and records for this station are not official NWS values.
T = Trace of Precipitation, MM = Missing Value Source: Averaged Metar Reports

Daily Weather History Graph

Daily Weather History Graph

Search for Another Location

Airport:

Trip Planner

Search our weather history database for the weather conditions in past years. The results will help you decide how hot, cold, wet, or windy it might be!

Date:

Astronomy

Apr. 29, 2012 Rise Set
Actual Time 5:47 AM CEST 8:14 PM CEST
Civil Twilight 5:12 AM CEST 8:49 PM CEST
Nautical Twilight 4:29 AM CEST 9:33 PM CEST
Astronomical Twilight 3:39 AM CEST 10:23 PM CEST
Moon 12:14 PM CEST 2:03 AM CEST
Length of Visible Light 15h 36m
Length of Day
14h 27m
Waxing Crescent, 50% of the Moon is Illuminated
Apr 29
Waxing Crescent
May 6
Full
May 12
Last Quarter
May 21
New
May 28
First Quarter

Hourly Weather History & Observations

Time (CEST) Temp. Dew Point Humidity Pressure Visibility Wind Dir Wind Speed Gust Speed Precip Events Conditions
12:20 AM 66.2 °F 50.0 °F 56% 29.95 in 6.2 mi East 8.1 mph - N/A   Unknown
12:50 AM 64.4 °F 48.2 °F 56% 29.95 in 6.2 mi East 8.1 mph - N/A   Unknown
1:20 AM 68.0 °F 50.0 °F 52% 29.92 in 6.2 mi East 9.2 mph - N/A   Unknown
1:50 AM 66.2 °F 50.0 °F 56% 29.92 in 6.2 mi ENE 8.1 mph - N/A   Unknown
2:00 AM 66 °F 49 °F 45% 29.90 in 28 mi ENE 8.9 mph - -  
2:20 AM 66.2 °F 50.0 °F 56% 29.92 in 6.2 mi NE 6.9 mph - N/A   Unknown
2:50 AM 66.2 °F 48.2 °F 52% 29.89 in 6.2 mi East 9.2 mph - N/A   Unknown
3:20 AM 66.2 °F 48.2 °F 52% 29.89 in 6.2 mi East 9.2 mph - N/A   Unknown
3:50 AM 68.0 °F 46.4 °F 46% 29.86 in - ESE 10.4 mph - N/A   Clear
4:20 AM 68.0 °F 46.4 °F 46% 29.86 in - ESE 10.4 mph - N/A   Clear
4:50 AM 68.0 °F 46.4 °F 46% 29.86 in - ESE 9.2 mph - N/A   Clear
5:00 AM 67 °F 46 °F 36% 29.86 in 31 mi ESE 8.9 mph - -   Mostly Cloudy
5:20 AM 66.2 °F 46.4 °F 49% 29.86 in - East 6.9 mph - N/A   Clear
5:50 AM 68.0 °F 44.6 °F 43% 29.86 in - ESE 13.8 mph - N/A   Clear
6:20 AM 60.8 °F 46.4 °F 59% 29.83 in - NE 5.8 mph - N/A   Clear
6:50 AM 66.2 °F 46.4 °F 49% 29.83 in - East 9.2 mph - N/A   Clear
7:20 AM 64.4 °F 46.4 °F 52% 29.83 in - East 8.1 mph - N/A   Clear
7:50 AM 68.0 °F 46.4 °F 46% 29.86 in - East 11.5 mph - N/A   Clear
8:00 AM 67 °F 46 °F 35% 29.83 in 47 mi East 11.2 mph - -   Mostly Cloudy
8:20 AM 68.0 °F 46.4 °F 46% 29.86 in - NE 10.4 mph - N/A   Clear
8:50 AM 71.6 °F 48.2 °F 43% 29.83 in - East 9.2 mph - N/A   Clear
9:20 AM 77.0 °F 41.0 °F 28% 29.83 in - SE 15.0 mph - N/A   Clear
9:50 AM 77.0 °F 44.6 °F 32% 29.83 in - ESE 13.8 mph - N/A   Clear
10:20 AM 78.8 °F 41.0 °F 26% 29.83 in - ESE 15.0 mph - N/A   Clear
10:50 AM 80.6 °F 39.2 °F 23% 29.83 in - ESE 13.8 mph - N/A   Clear
11:00 AM 80 °F 39 °F 14% 29.81 in 47 mi ESE 13.4 mph - -   Mostly Cloudy
11:20 AM 80.6 °F 44.6 °F 28% 29.86 in - East 12.7 mph - N/A   Clear
11:50 AM 80.6 °F 39.2 °F 23% 29.86 in - East 10.4 mph - N/A   Clear
12:20 PM 82.4 °F 41.0 °F 23% 29.86 in - East 11.5 mph - N/A   Clear
12:50 PM 84.2 °F 41.0 °F 22% 29.83 in - ESE 9.2 mph - N/A   Clear
1:20 PM 84.2 °F 42.8 °F 23% 29.83 in - SSE 9.2 mph - N/A   Clear
1:50 PM 84.2 °F 42.8 °F 23% 29.83 in - SSE 9.2 mph - N/A   Clear
2:00 PM 85 °F 42 °F 13% 29.79 in 47 mi SSE 8.9 mph - -   Partly Cloudy
2:20 PM 84.2 °F 41.0 °F 22% 29.83 in - SSE 8.1 mph - N/A   Clear
2:50 PM 84.2 °F 41.0 °F 22% 29.83 in - South 9.2 mph - N/A   Clear
3:20 PM 86.0 °F 39.2 °F 19% 29.83 in - SSE 9.2 mph - N/A   Clear
3:50 PM 86.0 °F 41.0 °F 20% 29.80 in - South 9.2 mph - N/A   Clear
4:20 PM 84.2 °F 42.8 °F 23% 29.83 in - South 11.5 mph - N/A   Clear
4:50 PM 84.2 °F 41.0 °F 22% 29.80 in - SSE 11.5 mph - N/A   Clear
5:00 PM 84 °F 40 °F 12% 29.76 in 37 mi SSE 11.2 mph - -   Scattered Clouds
5:20 PM 84.2 °F 39.2 °F 20% 29.80 in - SSE 9.2 mph - N/A   Clear
5:50 PM 82.4 °F 42.8 °F 25% 29.80 in - South 9.2 mph - N/A   Clear
6:20 PM 80.6 °F 46.4 °F 30% 29.80 in - South 6.9 mph - N/A   Clear
6:50 PM 80.6 °F 39.2 °F 23% 29.80 in - South 8.1 mph - N/A   Clear
7:20 PM 78.8 °F 41.0 °F 26% 29.80 in - South 5.8 mph - N/A   Clear
7:50 PM 77.0 °F 39.2 °F 26% 29.80 in - South 3.5 mph - N/A   Clear
8:00 PM 77 °F 39 °F 16% 29.78 in 47 mi South 4.5 mph - -   Scattered Clouds
8:20 PM 75.2 °F 39.2 °F 27% 29.80 in - Variable 1.2 mph - N/A   Clear
8:50 PM 71.6 °F 44.6 °F 38% 29.83 in - ESE 4.6 mph - N/A   Clear
9:20 PM 68.0 °F 42.8 °F 40% 29.83 in - East 3.5 mph - N/A   Clear
9:50 PM 64.4 °F 46.4 °F 52% 29.83 in - ENE 3.5 mph - N/A   Clear
10:20 PM 66.2 °F 42.8 °F 43% 29.86 in - ENE 3.5 mph - N/A   Clear
10:50 PM 66.2 °F 44.6 °F 46% 29.86 in - East 4.6 mph - N/A   Clear
11:00 PM 66 °F 45 °F 36% 29.84 in 31 mi East 4.5 mph - -   Partly Cloudy
11:20 PM 66.2 °F 42.8 °F 43% 29.86 in 6.2 mi East 3.5 mph - N/A   Unknown
11:50 PM 66.2 °F 44.6 °F 46% 29.86 in 6.2 mi Variable 2.3 mph - N/A   Unknown